{"data":{"norad_id":65397,"intl_designator":"2025-191U","name":"STARLINK-34940","alt_names":[],"object_type":"PAYLOAD","status":"ACTIVE","operator":null,"country":"US","launch_date":"2025-08-30","launch_site_code":"AFWTR","launch_vehicle":null,"mission":null,"orbit_class":"UNKNOWN","rcs_meters":null,"size_class":null,"mass_kg":null,"dimensions":null,"purposes":["comms"],"wikipedia_slug":null,"has_3d_model":false,"image_url":null,"decayed_at":null,"tle_current":{"epoch":"2026-09-20T20:26:30.195168Z","epoch_age_seconds":84409,"freshness":"FRESH","line1":"1 65397U 25191U   26263.85173837  .00011292  00000+0  35137-3 0  9995","line2":"2 65397  97.2832 129.8907 0001869  90.6941 269.4516 15.33461726 59692","mean_motion":15.33461726,"eccentricity":0.0001869,"inclination_deg":97.2832,"raan_deg":129.8907,"arg_perigee_deg":90.6941,"mean_anomaly_deg":269.4516,"bstar":0.00035137,"rev_number":5969,"period_min":93.905180389223,"perigee_km":464.21433559856,"apogee_km":466.77248464586,"semimajor_km":6843.6304101222,"source":"CELESTRAK","updated_at":"2026-09-21T09:00:35.600967Z"}}}